• In Hungary
  • List of Countries
  • For 7 days
  • Water Temperature
  • Satellite Maps
  • Weather Map
  • News
  • Weather Widgets
  • user-avatar
    Login

    Hourly Weather Podlegorz

    Today, 21 January, Sunday

    Time Temperature Precipitation Wind Pressure Humidity
    00:00 -1°C° 0 mm 1 mps 747 mmHg 91%
    01:00 -1°C° 0 mm 1 mps 747 mmHg 91%
    02:00 -1°C° 0 mm 1 mps 748 mmHg 91%
    03:00 -2°C° 0 mm 1 mps 748 mmHg 91%
    04:00 -4°C° 0 mm 2 mps 748 mmHg 91%
    05:00 -4°C° 0 mm 2 mps 748 mmHg 92%
    06:00 -4°C° 0 mm 2 mps 748 mmHg 92%
    07:00 -4°C° 0 mm 2 mps 749 mmHg 93%
    08:00 -3°C° 0 mm 2 mps 750 mmHg 91%
    09:00 -3°C° 0 mm 2 mps 751 mmHg 90%
    10:00 -2°C° 0 mm 2 mps 752 mmHg 89%
    11:00 -2°C° 0 mm 2 mps 752 mmHg 88%
    12:00 -1°C° 0 mm 2 mps 753 mmHg 87%
    13:00 +1°C° 0 mm 2 mps 753 mmHg 86%
    14:00 -1°C° 0 mm 2 mps 754 mmHg 88%
    15:00 +1°C° 0 mm 1 mps 755 mmHg 91%
    16:00 0°C° 0 mm 1 mps 755 mmHg 93%
    17:00 -1°C° 0 mm 1 mps 756 mmHg 94%
    18:00 -1°C° 0 mm 1 mps 756 mmHg 95%
    19:00 -2°C° 0 mm 1 mps 757 mmHg 95%
    20:00 -2°C° 0 mm 1 mps 757 mmHg 95%
    21:00 -3°C° 0 mm 0 mps 758 mmHg 95%
    22:00 -3°C° 0 mm 0 mps 758 mmHg 95%
    23:00 -2°C° 0 mm 1 mps 758 mmHg 95%

    Tomorrow, 22 January, Monday

    Time Temperature Precipitation Wind Pressure Humidity
    00:00 -2°C° 0 mm 1 mps 758 mmHg 95%
    01:00 -2°C° 0 mm 1 mps 758 mmHg 95%
    02:00 -2°C° 0 mm 1 mps 757 mmHg 95%
    03:00 -4°C° 0 mm 2 mps 757 mmHg 95%
    04:00 -4°C° 0 mm 2 mps 757 mmHg 95%
    05:00 -4°C° 0 mm 2 mps 756 mmHg 95%
    06:00 -4°C° 0 mm 2 mps 756 mmHg 94%
    07:00 -5°C° 0 mm 3 mps 756 mmHg 93%
    08:00 -5°C° 0 mm 3 mps 756 mmHg 90%
    09:00 -4°C° 0 mm 3 mps 756 mmHg 87%
    10:00 -4°C° 0 mm 4 mps 756 mmHg 85%
    11:00 -3°C° 0 mm 4 mps 756 mmHg 83%
    12:00 -3°C° 0 mm 4 mps 756 mmHg 81%
    13:00 -2°C° 0 mm 4 mps 756 mmHg 78%
    14:00 -2°C° 0 mm 4 mps 756 mmHg 79%
    15:00 -3°C° 0 mm 4 mps 756 mmHg 80%
    16:00 -3°C° 0 mm 4 mps 756 mmHg 81%
    17:00 -3°C° 0 mm 4 mps 756 mmHg 81%
    18:00 -3°C° 0 mm 4 mps 756 mmHg 81%
    19:00 -3°C° 0 mm 4 mps 756 mmHg 82%
    20:00 -3°C° 0 mm 4 mps 756 mmHg 82%
    21:00 -3°C° 0 mm 4 mps 757 mmHg 82%
    22:00 -3°C° 0 mm 4 mps 757 mmHg 82%
    23:00 -4°C° 0 mm 3 mps 757 mmHg 83%

    Day after tomorrow, 23 January, Tuesday

    Time Temperature Precipitation Wind Pressure Humidity
    00:00 -4°C° 0 mm 3 mps 757 mmHg 84%
    01:00 -4°C° 0 mm 3 mps 757 mmHg 85%
    02:00 -4°C° 0 mm 3 mps 758 mmHg 86%
    03:00 -4°C° 0 mm 3 mps 758 mmHg 87%
    04:00 -3°C° 0 mm 2 mps 758 mmHg 87%
    05:00 -3°C° 0 mm 2 mps 759 mmHg 89%
    06:00 -3°C° 0 mm 2 mps 759 mmHg 90%
    07:00 -3°C° 0 mm 2 mps 760 mmHg 91%
    08:00 -3°C° 0 mm 2 mps 760 mmHg 90%
    09:00 0°C° 0 mm 1 mps 761 mmHg 89%
    10:00 0°C° 0 mm 1 mps 762 mmHg 88%
    11:00 +1°C° 0 mm 1 mps 762 mmHg 87%
    12:00 +1°C° 0 mm 1 mps 762 mmHg 86%
    13:00 +2°C° 0 mm 1 mps 762 mmHg 85%
    14:00 +2°C° 0 mm 1 mps 762 mmHg 87%
    15:00 +1°C° 0 mm 1 mps 762 mmHg 89%
    16:00 +1°C° 0 mm 1 mps 763 mmHg 91%
    17:00 +1°C° 0 mm 1 mps 763 mmHg 92%
    18:00 +1°C° 0 mm 1 mps 763 mmHg 93%
    19:00 -1°C° 0 mm 2 mps 763 mmHg 94%
    20:00 +1°C° 0 mm 2 mps 763 mmHg 94%
    21:00 +1°C° 0 mm 2 mps 763 mmHg 94%
    22:00 +1°C° 0 mm 2 mps 763 mmHg 94%
    23:00 +1°C° 0 mm 2 mps 763 mmHg 94%

    24 January, Wednesday

    Time Temperature Precipitation Wind Pressure Humidity
    00:00 -1°C° 0 mm 3 mps 763 mmHg 93%
    01:00 -1°C° 0 mm 3 mps 763 mmHg 92%
    02:00 -1°C° 0 mm 3 mps 762 mmHg 92%
    03:00 -1°C° 0 mm 3 mps 762 mmHg 91%
    04:00 -1°C° 0 mm 3 mps 762 mmHg 91%
    05:00 -1°C° 0 mm 3 mps 762 mmHg 90%
    06:00 -1°C° 0 mm 4 mps 761 mmHg 90%
    07:00 -1°C° 0 mm 4 mps 761 mmHg 89%
    08:00 0°C° 0 mm 4 mps 761 mmHg 89%
    09:00 0°C° 0 mm 4 mps 761 mmHg 88%
    10:00 +1°C° 0 mm 4 mps 761 mmHg 88%
    11:00 +3°C° 0 mm 4 mps 761 mmHg 87%
    12:00 +4°C° 0 mm 4 mps 761 mmHg 86%
    13:00 +4°C° 0 mm 4 mps 760 mmHg 86%
    14:00 +4°C° 0 mm 4 mps 760 mmHg 87%
    15:00 +3°C° 0 mm 4 mps 760 mmHg 88%
    16:00 +3°C° 0 mm 4 mps 760 mmHg 89%
    17:00 +3°C° 0 mm 4 mps 760 mmHg 89%
    18:00 +1°C° 0 mm 4 mps 760 mmHg 90%
    19:00 +1°C° 0 mm 4 mps 760 mmHg 90%
    20:00 +1°C° 0 mm 4 mps 760 mmHg 89%
    21:00 +1°C° 0 mm 4 mps 759 mmHg 89%
    22:00 +1°C° 0 mm 4 mps 759 mmHg 88%
    23:00 +1°C° 0 mm 4 mps 759 mmHg 88%

    25 January, Thursday

    Time Temperature Precipitation Wind Pressure Humidity
    00:00 +1°C° 0 mm 4 mps 759 mmHg 88%
    01:00 +1°C° 0 mm 4 mps 759 mmHg 88%
    02:00 +1°C° 0 mm 4 mps 758 mmHg 87%
    03:00 +1°C° 0 mm 4 mps 758 mmHg 87%
    04:00 +1°C° 0 mm 4 mps 757 mmHg 87%
    05:00 +1°C° 0 mm 4 mps 757 mmHg 86%
    06:00 +1°C° 0 mm 4 mps 757 mmHg 86%
    07:00 +1°C° 0 mm 4 mps 757 mmHg 85%
    08:00 +1°C° 0 mm 4 mps 757 mmHg 83%
    09:00 +3°C° 0 mm 4 mps 757 mmHg 81%
    10:00 +3°C° 0 mm 5 mps 757 mmHg 79%
    11:00 +4°C° 0 mm 4 mps 756 mmHg 78%
    12:00 +5°C° 0 mm 4 mps 756 mmHg 77%
    13:00 +6°C° 0 mm 4 mps 756 mmHg 75%
    14:00 +5°C° 0 mm 4 mps 756 mmHg 77%
    15:00 +5°C° 0 mm 3 mps 756 mmHg 79%
    16:00 +4°C° 0 mm 3 mps 756 mmHg 81%
    17:00 +3°C° 0 mm 3 mps 756 mmHg 82%
    18:00 +3°C° 0 mm 3 mps 756 mmHg 84%
    19:00 +2°C° 0 mm 3 mps 757 mmHg 85%
    20:00 +2°C° 0 mm 3 mps 757 mmHg 85%
    21:00 +3°C° 0 mm 2 mps 757 mmHg 86%
    22:00 +3°C° 0 mm 2 mps 757 mmHg 86%
    23:00 +2°C° 0 mm 2 mps 757 mmHg 87%

    26 January, Friday

    Time Temperature Precipitation Wind Pressure Humidity
    00:00 +2°C° 0 mm 2 mps 757 mmHg 87%
    01:00 +2°C° 0 mm 2 mps 757 mmHg 87%
    02:00 +2°C° 0 mm 2 mps 757 mmHg 88%
    03:00 +2°C° 0 mm 2 mps 757 mmHg 88%
    04:00 +2°C° 0 mm 2 mps 757 mmHg 88%
    05:00 +3°C° 0.1 mm 1 mps 757 mmHg 88%
    06:00 +3°C° 0.1 mm 1 mps 757 mmHg 88%
    07:00 +3°C° 0.1 mm 1 mps 757 mmHg 88%
    08:00 +3°C° 0.2 mm 1 mps 757 mmHg 88%
    09:00 +3°C° 0.2 mm 1 mps 758 mmHg 87%
    10:00 +4°C° 0.2 mm 1 mps 758 mmHg 87%
    11:00 +4°C° 0.3 mm 1 mps 758 mmHg 86%
    12:00 +4°C° 0.3 mm 1 mps 758 mmHg 86%
    13:00 +4°C° 0.3 mm 1 mps 758 mmHg 85%
    14:00 +4°C° 0.1 mm 1 mps 758 mmHg 86%
    15:00 +4°C° 0.1 mm 1 mps 758 mmHg 87%
    16:00 +4°C° 0.1 mm 1 mps 758 mmHg 88%
    17:00 +3°C° 0 mm 1 mps 758 mmHg 89%
    18:00 +3°C° 0 mm 1 mps 758 mmHg 90%
    19:00 +2°C° 0 mm 1 mps 759 mmHg 90%
    20:00 +2°C° 0 mm 1 mps 759 mmHg 91%
    21:00 +2°C° 0 mm 1 mps 759 mmHg 91%
    22:00 +2°C° 0 mm 1 mps 760 mmHg 91%
    23:00 +2°C° 0 mm 1 mps 760 mmHg 91%
    Show more